Franklin, NC

7:22 AM EDT on September 28, 2016 (GMT -0400)
Franklin

Weather History for K1A5 - March, 2013

Change the Weather History Date:

Wednesday, March 27, 2013

  Actual Average (KTOC) Record (KTOC)
Temperature  
Mean Temperature 37 °F -  
Max Temperature 47 °F 66 °F 65 °F (2014)
Min Temperature 27 °F 40 °F 32 °F (2014)
Degree Days  
Heating Degree Days 28    
Moisture  
Dew Point 18 °F    
Average Humidity 50    
Maximum Humidity 79    
Minimum Humidity 25    
Precipitation  
Precipitation 0.00 in - - ()
Sea Level Pressure  
Sea Level Pressure 30.22 in    
Wind  
Wind Speed 5 mph (NNW)    
Max Wind Speed 14 mph    
Max Gust Speed 26 mph    
Visibility 10 miles    
Events      
Averages and records for this station are not official NWS values.
T = Trace of Precipitation, MM = Missing Value Source: NWS Daily Summary

Daily Weather History Graph

Daily Weather History Graph

Search for Another Location

Airport or City:

Trip Planner

Search our weather history database for the weather conditions in past years. The results will help you decide how hot, cold, wet, or windy it might be!

Date:

Astronomy

Mar. 27, 2013 Rise Set
Actual Time 7:27 AM EDT 7:51 PM EDT
Civil Twilight 7:01 AM EDT 8:16 PM EDT
Nautical Twilight 6:31 AM EDT 8:46 PM EDT
Astronomical Twilight 6:01 AM EDT 9:17 PM EDT
Moon 8:30 PM EDT (3/27) 7:19 AM EDT (3/27)
Length of Visible Light 13h 15m
Length of Day
12h 24m
Full, 100% of the Moon is Illuminated
Mar 27
Full
Apr 3
Last Quarter
Apr 10
New
Apr 18
First Quarter
Apr 25
Full

Hourly Weather History & Observations

Time (EDT) Temp. Windchill Dew Point Humidity Pressure Visibility Wind Dir Wind Speed Gust Speed Precip Events Conditions
12:15 AM 32.2 °F 26.7 °F 21.2 °F 64% 30.20 in 10.0 mi West 5.8 mph - N/A   Overcast
12:35 AM 32.0 °F - 21.6 °F 65% 30.20 in 10.0 mi Calm Calm - N/A   Overcast
12:55 AM 32.0 °F - 21.6 °F 65% 30.20 in 10.0 mi Calm Calm - N/A   Overcast
1:15 AM 32.0 °F 28.7 °F 21.7 °F 66% 30.20 in 10.0 mi NNW 3.5 mph - N/A   Overcast
1:35 AM 32.0 °F 28.7 °F 21.7 °F 66% 30.19 in 10.0 mi NW 3.5 mph - N/A   Overcast
1:55 AM 32.0 °F 27.5 °F 21.6 °F 65% 30.20 in 10.0 mi NNW 4.6 mph - N/A   Overcast
2:15 AM 32.0 °F - 21.6 °F 65% 30.19 in 10.0 mi Calm Calm - N/A   Overcast
2:35 AM 32.0 °F 25.6 °F 21.2 °F 64% 30.19 in 10.0 mi NNW 6.9 mph - N/A   Overcast
2:55 AM 32.0 °F 28.7 °F 20.3 °F 62% 30.19 in 10.0 mi North 3.5 mph - N/A   Overcast
3:15 AM 31.8 °F 25.4 °F 19.9 °F 62% 30.18 in 10.0 mi NNW 6.9 mph - N/A   Mostly Cloudy
3:35 AM 31.3 °F 24.7 °F 19.8 °F 62% 30.18 in 10.0 mi WNW 6.9 mph - N/A   Scattered Clouds
3:55 AM 31.3 °F 24.7 °F 19.0 °F 61% 30.18 in 10.0 mi NW 6.9 mph - N/A   Scattered Clouds
4:15 AM 31.1 °F 23.7 °F 18.5 °F 60% 30.18 in 10.0 mi WNW 8.1 mph - N/A   Scattered Clouds
4:35 AM 30.7 °F 24.1 °F 18.3 °F 60% 30.18 in 10.0 mi WNW 6.9 mph - N/A   Clear
4:55 AM 30.7 °F 23.3 °F 18.0 °F 59% 30.19 in 10.0 mi WNW 8.1 mph - N/A   Clear
5:15 AM 30.4 °F 25.6 °F 17.8 °F 60% 30.19 in 10.0 mi NW 4.6 mph - N/A   Clear
5:35 AM 30.0 °F 24.1 °F 17.2 °F 59% 30.19 in 10.0 mi NW 5.8 mph - N/A   Clear
5:55 AM 30.0 °F 23.2 °F 17.4 °F 59% 30.20 in 10.0 mi NW 6.9 mph - N/A   Clear
6:15 AM 29.8 °F 22.2 °F 18.0 °F 61% 30.20 in 10.0 mi NW 8.1 mph - N/A   Scattered Clouds
6:35 AM 29.1 °F - 18.1 °F 64% 30.21 in 10.0 mi Calm Calm - N/A   Scattered Clouds
6:55 AM 29.7 °F 26.1 °F 18.5 °F 63% 30.21 in 10.0 mi NNW 3.5 mph - N/A   Mostly Cloudy
7:15 AM 29.5 °F 24.5 °F 18.7 °F 64% 30.22 in 10.0 mi NNW 4.6 mph - N/A   Overcast
7:35 AM 29.1 °F 24.1 °F 18.7 °F 65% 30.22 in 10.0 mi NNW 4.6 mph - N/A   Scattered Clouds
7:55 AM 29.3 °F 24.3 °F 18.7 °F 65% 30.23 in 10.0 mi North 4.6 mph - N/A   Scattered Clouds
8:15 AM 30.7 °F - 19.4 °F 63% 30.23 in 10.0 mi Calm Calm - N/A   Scattered Clouds
8:35 AM 30.7 °F - 19.8 °F 64% 30.23 in 10.0 mi Calm Calm - N/A   Scattered Clouds
8:55 AM 31.1 °F 24.5 °F 20.1 °F 64% 30.23 in 10.0 mi North 6.9 mph - N/A   Clear
9:15 AM 32.0 °F 24.2 °F 20.5 °F 63% 30.25 in 10.0 mi North 9.2 mph - N/A   Clear
9:35 AM 32.9 °F 24.7 °F 20.5 °F 60% 30.25 in 10.0 mi North 10.4 mph 16.1 mph N/A   Clear
9:55 AM 33.1 °F 28.7 °F 20.1 °F 59% 30.26 in 10.0 mi NNW 4.6 mph - N/A   Clear
10:15 AM 33.8 °F 29.6 °F 18.7 °F 54% 30.25 in 10.0 mi North 4.6 mph - N/A   Clear
10:35 AM 35.6 °F 28.6 °F 17.2 °F 47% 30.25 in 10.0 mi NW 9.2 mph - N/A   Clear
10:55 AM 36.7 °F 32.0 °F 17.4 °F 46% 30.25 in 10.0 mi NNW 5.8 mph - N/A   Clear
11:15 AM 37.0 °F 31.6 °F 15.4 °F 41% 30.25 in 10.0 mi NNW 6.9 mph - N/A   Clear
11:35 AM 38.3 °F 33.2 °F 16.7 °F 42% 30.26 in 10.0 mi WNW 6.9 mph - N/A   Clear
11:55 AM 39.7 °F 34.3 °F 16.5 °F 39% 30.25 in 10.0 mi North 8.1 mph - N/A   Clear
12:15 PM 40.3 °F 33.0 °F 15.3 °F 36% 30.25 in 10.0 mi North 12.7 mph 19.6 mph N/A   Clear
12:35 PM 40.3 °F 33.4 °F 14.5 °F 35% 30.25 in 10.0 mi North 11.5 mph 17.3 mph N/A   Clear
12:55 PM 41.5 °F 37.8 °F 18.0 °F 39% 30.24 in 10.0 mi NNW 5.8 mph - N/A   Clear
1:15 PM 42.6 °F 37.8 °F 17.2 °F 36% 30.24 in 10.0 mi NNW 8.1 mph - N/A   Clear
1:35 PM 43.2 °F 36.6 °F 16.5 °F 34% 30.23 in 10.0 mi North 12.7 mph 18.4 mph N/A   Clear
1:55 PM 43.5 °F 37.5 °F 15.3 °F 32% 30.22 in 10.0 mi North 11.5 mph 17.3 mph N/A   Clear
2:15 PM 44.6 °F 38.8 °F 15.8 °F 31% 30.21 in 10.0 mi North 11.5 mph 17.3 mph N/A   Clear
2:35 PM 45.0 °F 39.3 °F 15.8 °F 31% 30.21 in 10.0 mi North 11.5 mph 17.3 mph N/A   Clear
2:55 PM 45.5 °F 39.6 °F 14.2 °F 28% 30.21 in 10.0 mi North 12.7 mph 17.3 mph N/A   Clear
3:15 PM 46.6 °F - 15.8 °F 29% 30.21 in 10.0 mi North 11.5 mph 19.6 mph N/A   Clear
3:35 PM 46.4 °F 41.5 °F 14.5 °F 28% 30.20 in 10.0 mi North 10.4 mph 17.3 mph N/A   Clear
3:55 PM 46.8 °F - 15.6 °F 29% 30.20 in 10.0 mi North 13.8 mph 17.3 mph N/A   Clear
4:15 PM 47.3 °F - 15.1 °F 28% 30.19 in 10.0 mi NNW 12.7 mph 17.3 mph N/A   Clear
4:35 PM 46.4 °F 41.1 °F 14.2 °F 27% 30.19 in 10.0 mi North 11.5 mph - N/A   Clear
4:55 PM 46.9 °F - 14.4 °F 27% 30.18 in 10.0 mi North 11.5 mph 17.3 mph N/A   Clear
5:15 PM 46.8 °F - 13.8 °F 27% 30.18 in 10.0 mi NNW 8.1 mph 16.1 mph N/A   Clear
5:35 PM 46.8 °F - 12.9 °F 26% 30.19 in 10.0 mi North 10.4 mph 18.4 mph N/A   Clear
5:55 PM 46.0 °F 41.0 °F 11.7 °F 25% 30.20 in 10.0 mi North 10.4 mph 26.5 mph N/A   Clear
6:15 PM 45.7 °F 42.0 °F 12.0 °F 26% 30.21 in 10.0 mi WNW 6.9 mph 16.1 mph N/A   Clear
6:35 PM 45.0 °F 41.8 °F 12.6 °F 27% 30.21 in 10.0 mi North 5.8 mph 9.2 mph N/A   Clear
6:55 PM 44.4 °F 40.5 °F 13.8 °F 29% 30.21 in 10.0 mi WNW 6.9 mph - N/A   Clear
7:15 PM 43.2 °F 40.5 °F 14.7 °F 32% 30.21 in 10.0 mi WNW 4.6 mph - N/A   Clear
7:35 PM 41.9 °F 38.2 °F 14.5 °F 33% 30.21 in 10.0 mi WNW 5.8 mph - N/A   Clear
7:55 PM 39.7 °F 34.9 °F 15.8 °F 38% 30.22 in 10.0 mi WNW 6.9 mph - N/A   Clear
8:15 PM 40.3 °F 37.1 °F 15.3 °F 36% 30.22 in 10.0 mi WNW 4.6 mph - N/A   Clear
8:35 PM 39.2 °F 37.0 °F 16.7 °F 40% 30.22 in 10.0 mi West 3.5 mph - N/A   Clear
8:55 PM 38.7 °F 36.3 °F 16.3 °F 40% 30.22 in 10.0 mi West 3.5 mph - N/A   Clear
9:15 PM 33.4 °F - 21.0 °F 60% 30.23 in 10.0 mi Calm Calm - N/A   Clear
9:35 PM 32.4 °F - 21.0 °F 63% 30.23 in 10.0 mi Calm Calm - N/A   Clear
9:55 PM 32.0 °F - 21.0 °F 64% 30.23 in 10.0 mi Calm Calm - N/A   Clear
10:15 PM 30.2 °F - 21.2 °F 69% 30.24 in 10.0 mi Calm Calm - N/A   Clear
10:35 PM 29.1 °F - 22.3 °F 76% 30.25 in 10.0 mi Calm Calm - N/A   Clear
10:55 PM 28.8 °F - 22.1 °F 76% 30.24 in 10.0 mi Calm Calm - N/A   Clear
11:15 PM 28.0 °F 22.8 °F 21.2 °F 76% 30.24 in 10.0 mi SW 4.6 mph - N/A   Clear
11:35 PM 27.9 °F 24.0 °F 21.2 °F 76% 30.24 in 10.0 mi WSW 3.5 mph - N/A   Clear
11:55 PM 27.0 °F - 21.2 °F 79% 30.23 in 10.0 mi Calm Calm - N/A   Clear